| time (UTC) | temp F | wind direction | speed MPH | gust MPH | rain 1hr in | rain 24hr in | rain mn in | humidity % | barometer mb |
| 20260906213418 | 90 | 277 | 1.0 | 3.0 | 0.00 | 0.02 | 0.00 | 35 | 1004.1 |
| 20260906212919 | 90 | 254 | 1.0 | 3.0 | 0.00 | 0.02 | 0.00 | 34 | 1004.1 |
| 20260906212418 | 90 | 289 | 1.0 | 3.0 | 0.00 | 0.02 | 0.00 | 34 | 1004.1 |
| 20260906211418 | 91 | 229 | 1.0 | 3.0 | 0.00 | 0.02 | 0.00 | 35 | 1004.1 |
| 20260906210918 | 91 | 200 | 2.0 | 5.0 | 0.00 | 0.02 | 0.00 | 34 | 1004.1 |
| 20260906210419 | 90 | 166 | 1.0 | 6.0 | 0.00 | 0.02 | 0.00 | 36 | 1004.2 |
| 20260906205918 | 90 | 270 | 1.0 | 6.0 | 0.00 | 0.02 | 0.00 | 36 | 1004.1 |
| 20260906205418 | 90 | 232 | 1.0 | 6.0 | 0.00 | 0.02 | 0.00 | 36 | 1004.6 |
| 20260906204419 | 90 | 207 | 2.0 | 6.0 | 0.00 | 0.02 | 0.00 | 34 | 1004.4 |
| 20260906203919 | 90 | 202 | 1.0 | 3.0 | 0.00 | 0.02 | 0.00 | 34 | 1004.4 |
| 20260906203425 | 90 | 314 | 1.0 | 3.0 | 0.00 | 0.02 | 0.00 | 35 | 1004.4 |
| 20260906202919 | 90 | 328 | 2.0 | 3.0 | 0.00 | 0.02 | 0.00 | 35 | 1004.4 |
| 20260906202418 | 89 | 286 | 1.0 | 8.0 | 0.00 | 0.02 | 0.00 | 34 | 1004.7 |
| 20260906200918 | 91 | 292 | 1.0 | 3.0 | 0.00 | 0.02 | 0.00 | 35 | 1004.4 |
| 20260906200419 | 90 | 242 | 1.0 | 3.0 | 0.00 | 0.02 | 0.00 | 34 | 1004.7 |
| 20260906195918 | 90 | 245 | 1.0 | 5.0 | 0.00 | 0.02 | 0.00 | 38 | 1004.7 |
| 20260906195418 | 89 | 276 | 1.0 | 5.0 | 0.00 | 0.02 | 0.00 | 35 | 1004.7 |
| 20260906194918 | 90 | 321 | 1.0 | 3.0 | 0.00 | 0.02 | 0.00 | 35 | 1004.7 |
| 20260906194418 | 91 | 200 | 1.0 | 3.0 | 0.00 | 0.02 | 0.00 | 35 | 1004.6 |
| 20260906193919 | 91 | 264 | 1.0 | 2.0 | 0.00 | 0.02 | 0.00 | 34 | 1004.7 |
| 20260906193419 | 90 | 232 | 1.0 | 3.0 | 0.00 | 0.02 | 0.00 | 35 | 1004.8 |
| 20260906192918 | 89 | 261 | 1.0 | 3.0 | 0.00 | 0.02 | 0.00 | 36 | 1005.1 |
| 20260906191918 | 88 | 234 | 1.0 | 5.0 | 0.00 | 0.02 | 0.00 | 38 | 1005.4 |
| 20260906191418 | 88 | 221 | 3.0 | 5.0 | 0.00 | 0.02 | 0.00 | 37 | 1005.4 |
| 20260906190918 | 88 | 244 | 1.0 | 3.0 | 0.00 | 0.02 | 0.00 | 38 | 1005.7 |
| 20260906190418 | 87 | 204 | 1.0 | 3.0 | 0.00 | 0.02 | 0.00 | 40 | 1005.8 |
| 20260906185918 | 87 | 307 | 1.0 | 3.0 | 0.00 | 0.02 | 0.00 | 40 | 1006.1 |
| 20260906184918 | 86 | 286 | 1.0 | 2.0 | 0.00 | 0.02 | 0.00 | 39 | 1006.3 |
| 20260906184418 | 86 | 241 | 1.0 | 3.0 | 0.00 | 0.02 | 0.00 | 41 | 1006.7 |
| 20260906183919 | 86 | 148 | 1.0 | 3.0 | 0.00 | 0.02 | 0.00 | 40 | 1006.8 |
| 20260906182918 | 84 | 171 | 1.0 | 3.0 | 0.00 | 0.02 | 0.00 | 43 | 1006.8 |
| 20260906181918 | 84 | 343 | 2.0 | 3.0 | 0.00 | 0.02 | 0.00 | 42 | 1007.2 |
| 20260906181418 | 83 | 170 | 1.0 | 3.0 | 0.00 | 0.02 | 0.00 | 44 | 1007.5 |
| 20260906180918 | 84 | 218 | 2.0 | 3.0 | 0.00 | 0.02 | 0.00 | 43 | 1007.5 |
| 20260906180418 | 83 | 228 | 1.0 | 3.0 | 0.00 | 0.02 | 0.00 | 46 | 1007.5 |
| 20260906175918 | 83 | 316 | 1.0 | 3.0 | 0.00 | 0.02 | 0.00 | 45 | 1007.5 |
| 20260906175418 | 82 | 245 | 1.0 | 3.0 | 0.00 | 0.02 | 0.00 | 47 | 1007.9 |
| 20260906174418 | 82 | 211 | 2.0 | 3.0 | 0.00 | 0.02 | 0.00 | 47 | 1008.1 |
| 20260906173918 | 82 | 328 | 2.0 | 3.0 | 0.00 | 0.02 | 0.00 | 46 | 1008.1 |
| 20260906173418 | 81 | 215 | 1.0 | 5.0 | 0.00 | 0.02 | 0.00 | 48 | 1008.5 |
| 20260906172918 | 81 | 325 | 1.0 | 5.0 | 0.00 | 0.02 | 0.00 | 48 | 1008.5 |
| 20260906171918 | 80 | 189 | 1.0 | 3.0 | 0.00 | 0.02 | 0.00 | 50 | 1008.8 |
| 20260906171419 | 81 | 184 | 1.0 | 3.0 | 0.00 | 0.02 | 0.00 | 49 | 1008.8 |
| 20260906170418 | 81 | 339 | 2.0 | 5.0 | 0.00 | 0.02 | 0.00 | 49 | 1009.1 |
| 20260906165918 | 79 | 283 | 0.0 | 5.0 | 0.00 | 0.02 | 0.00 | 49 | 1009.5 |
| 20260906165418 | 79 | 205 | 2.0 | 5.0 | 0.00 | 0.02 | 0.00 | 50 | 1009.5 |
| 20260906164918 | 80 | 326 | 2.0 | 3.0 | 0.00 | 0.02 | 0.00 | 49 | 1009.3 |
| 20260906163918 | 80 | 174 | 1.0 | 2.0 | 0.00 | 0.02 | 0.00 | 48 | 1009.1 |
| 20260906162918 | 78 | 324 | 1.0 | 2.0 | 0.00 | 0.02 | 0.00 | 52 | 1009.4 |
| 20260906162418 | 77 | 305 | 0.0 | 2.0 | 0.00 | 0.02 | 0.00 | 53 | 1009.2 |
| 20260906161918 | 78 | 325 | 1.0 | 3.0 | 0.00 | 0.02 | 0.00 | 52 | 1009.2 |
| 20260906161418 | 77 | 302 | 0.0 | 3.0 | 0.00 | 0.02 | 0.00 | 52 | 1009.1 |
| 20260906160918 | 78 | 9 | 0.0 | 2.0 | 0.00 | 0.02 | 0.00 | 53 | 1009.4 |
| 20260906160417 | 77 | 299 | 1.0 | 3.0 | 0.00 | 0.02 | 0.00 | 53 | 1009.1 |
| 20260906155918 | 76 | 283 | 0.0 | 3.0 | 0.00 | 0.02 | 0.00 | 55 | 1009.4 |
| 20260906155418 | 76 | 352 | 1.0 | 3.0 | 0.00 | 0.02 | 0.00 | 55 | 1009.4 |
| 20260906154918 | 76 | 34 | 0.0 | 3.0 | 0.00 | 0.02 | 0.00 | 54 | 1009.2 |
| 20260906154418 | 75 | 302 | 0.0 | 2.0 | 0.00 | 0.02 | 0.00 | 56 | 1009.1 |
| 20260906153918 | 76 | 325 | 1.0 | 5.0 | 0.00 | 0.02 | 0.00 | 56 | 1009.4 |
| 20260906153418 | 75 | 10 | 0.0 | 5.0 | 0.00 | 0.02 | 0.00 | 57 | 1009.5 |
| 20260906152918 | 75 | 335 | 0.0 | 2.0 | 0.00 | 0.02 | 0.00 | 56 | 1009.1 |
| 20260906152418 | 74 | 337 | 0.0 | 2.0 | 0.00 | 0.02 | 0.00 | 58 | 1009.4 |
| 20260906151918 | 74 | 155 | 0.0 | 2.0 | 0.00 | 0.02 | 0.00 | 60 | 1009.8 |
| 20260906151418 | 72 | 329 | 0.0 | 2.0 | 0.00 | 0.02 | 0.00 | 61 | 1010.1 |
| 20260906150918 | 71 | 328 | 1.0 | 2.0 | 0.00 | 0.02 | 0.00 | 63 | 1010.2 |
| 20260906150418 | 71 | 354 | 1.0 | 3.0 | 0.00 | 0.02 | 0.00 | 64 | 1010.2 |
| 20260906145918 | 72 | 20 | 0.0 | 3.0 | 0.00 | 0.02 | 0.00 | 62 | 1010.1 |
| 20260906145418 | 73 | 6 | 0.0 | 2.0 | 0.00 | 0.02 | 0.00 | 61 | 1009.5 |
| 20260906144918 | 74 | 330 | 0.0 | 3.0 | 0.00 | 0.02 | 0.00 | 59 | 1009.7 |
| 20260906144418 | 74 | 345 | 1.0 | 3.0 | 0.00 | 0.02 | 0.00 | 60 | 1009.5 |
| 20260906143918 | 73 | 332 | 1.0 | 3.0 | 0.00 | 0.02 | 0.00 | 61 | 1009.4 |
| 20260906143418 | 73 | 9 | 0.0 | 2.0 | 0.00 | 0.02 | 0.00 | 62 | 1009.4 |
| 20260906142918 | 72 | 28 | 1.0 | 2.0 | 0.00 | 0.02 | 0.00 | 63 | 1009.5 |
| 20260906142418 | 72 | 335 | 1.0 | 2.0 | 0.00 | 0.02 | 0.00 | 64 | 1009.5 |
| 20260906141920 | 70 | 189 | 1.0 | 2.0 | 0.00 | 0.02 | 0.00 | 68 | 1009.8 |
| 20260906141418 | 69 | 300 | 0.0 | 3.0 | 0.00 | 0.02 | 0.00 | 70 | 1009.7 |
| 20260906140918 | 68 | 325 | 2.0 | 3.0 | 0.00 | 0.02 | 0.00 | 72 | 1009.8 |
| 20260906140418 | 67 | 328 | 1.0 | 3.0 | 0.00 | 0.02 | 0.00 | 74 | 1010.2 |
| 20260906135417 | 65 | 355 | 2.0 | 5.0 | 0.00 | 0.02 | 0.00 | 78 | 1010.5 |
| 20260906134917 | 65 | 31 | 2.0 | 5.0 | 0.00 | 0.02 | 0.00 | 79 | 1010.2 |
| 20260906134418 | 64 | 20 | 2.0 | 5.0 | 0.00 | 0.02 | 0.00 | 80 | 1010.4 |
| 20260906133918 | 64 | 25 | 2.0 | 5.0 | 0.00 | 0.02 | 0.00 | 81 | 1010.5 |
| 20260906133418 | 64 | 25 | 2.0 | 5.0 | 0.00 | 0.02 | 0.00 | 81 | 1010.2 |
| 20260906132418 | 64 | 23 | 3.0 | 5.0 | 0.00 | 0.02 | 0.00 | 83 | 1010.2 |
| 20260906131917 | 64 | 20 | 3.0 | 5.0 | 0.00 | 0.02 | 0.00 | 84 | 1010.1 |
| 20260906131418 | 63 | 25 | 3.0 | 5.0 | 0.00 | 0.02 | 0.00 | 84 | 1009.9 |
| 20260906130918 | 63 | 22 | 2.0 | 3.0 | 0.00 | 0.02 | 0.00 | 85 | 1009.8 |
| 20260906130418 | 63 | 2 | 2.0 | 3.0 | 0.00 | 0.02 | 0.00 | 85 | 1009.9 |
| 20260906125418 | 63 | 352 | 1.0 | 2.0 | 0.00 | 0.02 | 0.00 | 86 | 1009.8 |
| 20260906124918 | 63 | 7 | 1.0 | 3.0 | 0.00 | 0.02 | 0.00 | 86 | 1009.8 |
| 20260906124418 | 63 | 66 | 1.0 | 3.0 | 0.00 | 0.02 | 0.00 | 87 | 1009.5 |
| 20260906123418 | 62 | 351 | 1.0 | 5.0 | 0.00 | 0.02 | 0.00 | 86 | 1009.5 |
| 20260906122918 | 62 | 130 | 1.0 | 5.0 | 0.00 | 0.02 | 0.00 | 85 | 1009.2 |
| 20260906122418 | 63 | 2 | 2.0 | 5.0 | 0.00 | 0.02 | 0.00 | 85 | 1009.1 |
| 20260906121418 | 63 | 339 | 1.0 | 3.0 | 0.00 | 0.02 | 0.00 | 84 | 1009.1 |
| 20260906120917 | 63 | 14 | 1.0 | 5.0 | 0.00 | 0.02 | 0.00 | 84 | 1009.1 |
| 20260906120418 | 63 | 25 | 1.0 | 5.0 | 0.00 | 0.02 | 0.00 | 84 | 1008.9 |
| 20260906115918 | 63 | 0 | 1.0 | 3.0 | 0.00 | 0.02 | 0.00 | 85 | 1009.0 |
| 20260906115418 | 63 | 0 | 1.0 | 3.0 | 0.00 | 0.02 | 0.00 | 85 | 1008.7 |
| 20260906114417 | 63 | 27 | 1.0 | 3.0 | 0.00 | 0.02 | 0.00 | 84 | 1008.5 |
| 20260906113918 | 64 | 40 | 1.0 | 2.0 | 0.00 | 0.02 | 0.00 | 84 | 1008.5 |
| 20260906113425 | 64 | 333 | 1.0 | 2.0 | 0.00 | 0.02 | 0.00 | 84 | 1008.5 |
| 20260906112917 | 64 | 28 | 1.0 | 2.0 | 0.00 | 0.02 | 0.00 | 83 | 1008.3 |
| 20260906111918 | 64 | 6 | 0.0 | 3.0 | 0.00 | 0.02 | 0.00 | 83 | 1008.1 |
| 20260906111417 | 64 | 51 | 0.0 | 5.0 | 0.00 | 0.02 | 0.00 | 83 | 1008.4 |
| 20260906110917 | 64 | 344 | 0.0 | 5.0 | 0.00 | 0.02 | 0.00 | 82 | 1008.2 |
| 20260906110417 | 65 | 14 | 2.0 | 5.0 | 0.00 | 0.02 | 0.00 | 82 | 1007.8 |
| 20260906105918 | 65 | 6 | 1.0 | 3.0 | 0.00 | 0.02 | 0.00 | 82 | 1007.7 |
| 20260906105418 | 65 | 10 | 2.0 | 5.0 | 0.00 | 0.02 | 0.00 | 82 | 1008.1 |
| 20260906104918 | 65 | 52 | 2.0 | 5.0 | 0.00 | 0.02 | 0.00 | 82 | 1008.0 |
| 20260906104417 | 65 | 29 | 2.0 | 5.0 | 0.00 | 0.02 | 0.00 | 82 | 1007.5 |
| 20260906103918 | 65 | 88 | 1.0 | 2.0 | 0.00 | 0.02 | 0.00 | 82 | 1007.5 |
| 20260906103418 | 65 | 2 | 0.0 | 3.0 | 0.00 | 0.02 | 0.00 | 80 | 1007.6 |
| 20260906102417 | 65 | 15 | 0.0 | 3.0 | 0.00 | 0.02 | 0.00 | 76 | 1007.5 |
| 20260906101418 | 65 | 306 | 1.0 | 3.0 | 0.00 | 0.02 | 0.00 | 73 | 1007.5 |
| 20260906100918 | 65 | 262 | 1.0 | 3.0 | 0.00 | 0.02 | 0.00 | 73 | 1007.5 |
| 20260906100418 | 65 | 269 | 1.0 | 2.0 | 0.00 | 0.02 | 0.00 | 72 | 1007.8 |
| 20260906095917 | 65 | 100 | 0.0 | 1.0 | 0.00 | 0.02 | 0.00 | 72 | 1007.5 |
| 20260906095418 | 65 | 348 | 0.0 | 1.0 | 0.00 | 0.02 | 0.00 | 71 | 1007.5 |
| 20260906094918 | 65 | 315 | 0.0 | 0.0 | 0.00 | 0.02 | 0.00 | 71 | 1007.6 |
| 20260906094418 | 65 | 353 | 0.0 | 1.0 | 0.00 | 0.02 | 0.00 | 71 | 1007.5 |
| 20260906093918 | 65 | 353 | 0.0 | 1.0 | 0.00 | 0.02 | 0.00 | 70 | 1007.1 |
| 20260906093418 | 66 | 315 | 0.0 | 1.0 | 0.00 | 0.02 | 0.00 | 71 | 1007.1 |
| 20260906092918 | 66 | 315 | 0.0 | 1.0 | 0.00 | 0.02 | 0.00 | 70 | 1006.8 |
| 20260906092417 | 66 | 321 | 0.0 | 1.0 | 0.00 | 0.02 | 0.00 | 70 | 1007.1 |
| 20260906091917 | 66 | 331 | 0.0 | 1.0 | 0.00 | 0.02 | 0.00 | 69 | 1006.4 |
| 20260906091418 | 66 | 318 | 0.0 | 1.0 | 0.00 | 0.02 | 0.00 | 69 | 1007.0 |
| 20260906090917 | 66 | 336 | 0.0 | 1.0 | 0.00 | 0.02 | 0.00 | 69 | 1006.9 |
| 20260906090417 | 66 | 313 | 0.0 | 1.0 | 0.00 | 0.02 | 0.00 | 68 | 1007.1 |
| 20260906085418 | 67 | 349 | 0.0 | 2.0 | 0.00 | 0.02 | 0.00 | 67 | 1006.5 |
| 20260906084918 | 67 | 314 | 0.0 | 2.0 | 0.00 | 0.02 | 0.00 | 67 | 1006.8 |
| 20260906084417 | 67 | 349 | 0.0 | 2.0 | 0.00 | 0.02 | 0.00 | 66 | 1006.4 |
| 20260906083917 | 67 | 315 | 1.0 | 2.0 | 0.00 | 0.02 | 0.00 | 66 | 1006.4 |
| 20260906082917 | 67 | 285 | 0.0 | 1.0 | 0.00 | 0.02 | 0.00 | 65 | 1006.8 |
| 20260906082418 | 68 | 298 | 0.0 | 2.0 | 0.00 | 0.02 | 0.00 | 65 | 1006.5 |
| 20260906081918 | 68 | 43 | 0.0 | 2.0 | 0.00 | 0.02 | 0.00 | 66 | 1006.5 |
| 20260906081417 | 68 | 347 | 0.0 | 2.0 | 0.00 | 0.02 | 0.00 | 67 | 1006.7 |
| 20260906080918 | 68 | 11 | 0.0 | 2.0 | 0.00 | 0.02 | 0.00 | 66 | 1006.4 |
| 20260906080418 | 68 | 43 | 0.0 | 2.0 | 0.00 | 0.02 | 0.00 | 64 | 1006.4 |
| 20260906075918 | 68 | 359 | 0.0 | 2.0 | 0.00 | 0.02 | 0.00 | 63 | 1006.4 |
| 20260906075417 | 68 | 341 | 1.0 | 2.0 | 0.00 | 0.02 | 0.00 | 63 | 1006.5 |
| 20260906074918 | 68 | 328 | 1.0 | 2.0 | 0.00 | 0.02 | 0.00 | 63 | 1006.6 |
| 20260906074418 | 68 | 329 | 0.0 | 2.0 | 0.00 | 0.02 | 0.00 | 62 | 1006.4 |
| 20260906073918 | 68 | 351 | 1.0 | 2.0 | 0.00 | 0.02 | 0.00 | 62 | 1006.1 |
| 20260906073417 | 68 | 341 | 1.0 | 2.0 | 0.00 | 0.02 | 0.00 | 62 | 1006.1 |
| 20260906072918 | 68 | 358 | 0.0 | 2.0 | 0.00 | 0.02 | 0.00 | 62 | 1006.1 |
| 20260906072417 | 68 | 16 | 0.0 | 2.0 | 0.00 | 0.02 | 0.00 | 59 | 1006.1 |
| 20260906071917 | 68 | 340 | 1.0 | 2.0 | 0.00 | 0.02 | 0.00 | 57 | 1006.4 |
| 20260906071418 | 68 | 334 | 1.0 | 2.0 | 0.00 | 0.02 | 0.00 | 56 | 1006.0 |
| 20260906070917 | 68 | 359 | 0.0 | 1.0 | 0.00 | 0.02 | 0.00 | 57 | 1006.1 |
| 20260906070418 | 68 | 279 | 0.0 | 1.0 | 0.00 | 0.02 | 0.00 | 59 | 1006.2 |
| 20260906065917 | 68 | 335 | 0.0 | 2.0 | 0.00 | 0.02 | 0.00 | 58 | 1006.4 |
| 20260906065418 | 68 | 46 | 0.0 | 2.0 | 0.00 | 0.02 | 0.00 | 56 | 1006.4 |
| 20260906064918 | 69 | 10 | 0.0 | 1.0 | 0.00 | 0.02 | 0.00 | 55 | 1006.4 |
| 20260906064418 | 69 | 345 | 0.0 | 1.0 | 0.00 | 0.02 | 0.00 | 55 | 1006.4 |
| 20260906062917 | 69 | 312 | 0.0 | 1.0 | 0.00 | 0.02 | 0.00 | 55 | 1006.4 |
| 20260906062418 | 70 | 322 | 0.0 | 2.0 | 0.00 | 0.02 | 0.00 | 54 | 1006.7 |
| 20260906061917 | 70 | 326 | 0.0 | 2.0 | 0.00 | 0.02 | 0.00 | 54 | 1006.4 |
| 20260906061418 | 70 | 339 | 0.0 | 1.0 | 0.00 | 0.02 | 0.00 | 54 | 1006.8 |
| 20260906060421 | 70 | 326 | 0.0 | 1.0 | 0.00 | 0.02 | 0.00 | 53 | 1006.4 |
| 20260906055417 | 71 | 356 | 0.0 | 1.0 | 0.00 | 0.02 | 0.02 | 51 | 1005.9 |
| 20260906054918 | 71 | 309 | 0.0 | 1.0 | 0.00 | 0.02 | 0.02 | 51 | 1006.1 |
| 20260906054418 | 71 | 332 | 0.0 | 1.0 | 0.00 | 0.02 | 0.02 | 50 | 1005.8 |
| 20260906053919 | 72 | 321 | 0.0 | 2.0 | 0.00 | 0.02 | 0.02 | 50 | 1005.5 |
| 20260906053419 | 72 | 315 | 0.0 | 2.0 | 0.00 | 0.02 | 0.02 | 51 | 1005.8 |
| 20260906052919 | 72 | 348 | 2.0 | 2.0 | 0.00 | 0.02 | 0.02 | 48 | 1005.8 |
| 20260906052419 | 72 | 357 | 1.0 | 2.0 | 0.00 | 0.02 | 0.02 | 49 | 1006.1 |
| 20260906051925 | 71 | 37 | 1.0 | 2.0 | 0.00 | 0.02 | 0.02 | 50 | 1006.1 |
| 20260906051419 | 71 | 340 | 0.0 | 2.0 | 0.00 | 0.02 | 0.02 | 49 | 1006.4 |
| 20260906050918 | 71 | 337 | 0.0 | 1.0 | 0.00 | 0.02 | 0.02 | 49 | 1006.0 |
| 20260906050419 | 71 | 37 | 0.0 | 0.0 | 0.00 | 0.02 | 0.02 | 50 | 1006.3 |
| 20260906045919 | 71 | 37 | 0.0 | 1.0 | 0.00 | 0.02 | 0.02 | 49 | 1005.8 |
| 20260906045418 | 71 | 14 | 0.0 | 2.0 | 0.01 | 0.02 | 0.02 | 49 | 1006.1 |
| 20260906044926 | 71 | 13 | 1.0 | 2.0 | 0.01 | 0.02 | 0.02 | 49 | 1005.8 |
| 20260906044419 | 71 | 50 | 1.0 | 2.0 | 0.02 | 0.02 | 0.02 | 49 | 1006.1 |
| 20260906043418 | 71 | 332 | 0.0 | 0.0 | 0.02 | 0.02 | 0.02 | 48 | 1005.8 |
| 20260906041919 | 72 | 326 | 0.0 | 2.0 | 0.02 | 0.02 | 0.02 | 48 | 1005.7 |
| 20260906041419 | 72 | 17 | 0.0 | 2.0 | 0.02 | 0.02 | 0.02 | 48 | 1005.8 |
| 20260906040919 | 73 | 3 | 0.0 | 1.0 | 0.02 | 0.02 | 0.02 | 46 | 1005.5 |
| 20260906040419 | 73 | 40 | 0.0 | 1.0 | 0.02 | 0.02 | 0.02 | 45 | 1005.8 |
| 20260906035918 | 74 | 314 | 0.0 | 1.0 | 0.02 | 0.02 | 0.02 | 44 | 1005.4 |
| 20260906035419 | 74 | 323 | 0.0 | 2.0 | 0.01 | 0.02 | 0.01 | 43 | 1005.8 |
| 20260906034919 | 75 | 354 | 0.0 | 3.0 | 0.01 | 0.02 | 0.01 | 44 | 1005.7 |
| 20260906034419 | 75 | 313 | 0.0 | 3.0 | 0.00 | 0.01 | 0.00 | 41 | 1006.0 |
| 20260906033919 | 75 | 219 | 0.0 | 2.0 | 0.00 | 0.01 | 0.00 | 41 | 1005.8 |
| 20260906032919 | 76 | 327 | 1.0 | 2.0 | 0.00 | 0.01 | 0.00 | 38 | 1005.4 |
| 20260906032418 | 76 | 328 | 0.0 | 2.0 | 0.00 | 0.01 | 0.00 | 38 | 1005.5 |
| 20260906031924 | 76 | 305 | 0.0 | 1.0 | 0.00 | 0.01 | 0.00 | 39 | 1005.7 |
| 20260906031418 | 76 | 324 | 1.0 | 2.0 | 0.00 | 0.01 | 0.00 | 39 | 1005.4 |
| 20260906030919 | 76 | 294 | 0.0 | 2.0 | 0.00 | 0.01 | 0.00 | 40 | 1005.8 |
| 20260906030418 | 77 | 322 | 1.0 | 2.0 | 0.00 | 0.01 | 0.00 | 40 | 1005.7 |
| 20260906025919 | 77 | 348 | 1.0 | 3.0 | 0.00 | 0.01 | 0.00 | 40 | 1005.4 |
| 20260906025418 | 77 | 319 | 1.0 | 3.0 | 0.00 | 0.01 | 0.00 | 39 | 1005.1 |
| 20260906024919 | 77 | 324 | 0.0 | 2.0 | 0.00 | 0.01 | 0.00 | 41 | 1005.2 |
| 20260906024418 | 78 | 325 | 1.0 | 2.0 | 0.00 | 0.01 | 0.00 | 38 | 1005.4 |
| 20260906023919 | 78 | 314 | 1.0 | 2.0 | 0.00 | 0.01 | 0.00 | 37 | 1005.4 |
| 20260906023418 | 78 | 311 | 0.0 | 1.0 | 0.00 | 0.01 | 0.00 | 36 | 1005.8 |
| 20260906022918 | 79 | 313 | 0.0 | 2.0 | 0.00 | 0.01 | 0.00 | 37 | 1005.8 |
| 20260906022419 | 79 | 303 | 0.0 | 2.0 | 0.00 | 0.01 | 0.00 | 36 | 1005.8 |
| 20260906021919 | 80 | 333 | 0.0 | 2.0 | 0.00 | 0.01 | 0.00 | 37 | 1005.8 |
| 20260906021418 | 80 | 356 | 1.0 | 5.0 | 0.00 | 0.01 | 0.00 | 34 | 1005.8 |
| 20260906020919 | 81 | 328 | 1.0 | 5.0 | 0.00 | 0.01 | 0.00 | 33 | 1005.5 |
| 20260906020419 | 81 | 332 | 0.0 | 3.0 | 0.00 | 0.01 | 0.00 | 33 | 1006.1 |
| 20260906015918 | 81 | 301 | 1.0 | 3.0 | 0.00 | 0.01 | 0.00 | 33 | 1006.1 |
| 20260906015421 | 81 | 303 | 1.0 | 5.0 | 0.00 | 0.01 | 0.00 | 33 | 1006.4 |
| 20260906014919 | 82 | 320 | 1.0 | 5.0 | 0.00 | 0.01 | 0.00 | 33 | 1006.4 |
| 20260906014419 | 82 | 309 | 2.0 | 5.0 | 0.00 | 0.01 | 0.00 | 32 | 1006.1 |
| 20260906013919 | 82 | 328 | 1.0 | 5.0 | 0.00 | 0.01 | 0.00 | 33 | 1006.4 |
| 20260906013418 | 82 | 322 | 1.0 | 3.0 | 0.00 | 0.01 | 0.00 | 32 | 1006.4 |
| 20260906012418 | 82 | 318 | 1.0 | 5.0 | 0.00 | 0.01 | 0.00 | 33 | 1006.8 |
| 20260906011418 | 83 | 305 | 2.0 | 5.0 | 0.00 | 0.01 | 0.00 | 32 | 1006.9 |
| 20260906010919 | 83 | 305 | 1.0 | 5.0 | 0.00 | 0.01 | 0.00 | 31 | 1006.8 |
| 20260906010418 | 84 | 304 | 2.0 | 5.0 | 0.00 | 0.01 | 0.00 | 31 | 1006.8 |
| 20260906005918 | 84 | 316 | 1.0 | 5.0 | 0.00 | 0.01 | 0.00 | 31 | 1006.4 |
| 20260906005419 | 85 | 325 | 2.0 | 5.0 | 0.00 | 0.01 | 0.00 | 30 | 1006.4 |
| 20260906004919 | 85 | 302 | 1.0 | 5.0 | 0.00 | 0.01 | 0.00 | 30 | 1006.5 |
| 20260906004418 | 85 | 312 | 2.0 | 5.0 | 0.00 | 0.01 | 0.00 | 29 | 1006.4 |
| 20260906003919 | 86 | 314 | 1.0 | 5.0 | 0.00 | 0.01 | 0.00 | 30 | 1006.8 |
| 20260906003418 | 86 | 326 | 1.0 | 5.0 | 0.00 | 0.01 | 0.00 | 29 | 1006.1 |
| 20260906002919 | 86 | 304 | 1.0 | 3.0 | 0.00 | 0.01 | 0.00 | 29 | 1006.4 |
| 20260906002418 | 87 | 305 | 1.0 | 3.0 | 0.00 | 0.01 | 0.00 | 29 | 1006.2 |
| 20260906001919 | 87 | 305 | 0.0 | 3.0 | 0.00 | 0.01 | 0.00 | 29 | 1005.9 |
| 20260906001418 | 88 | 321 | 1.0 | 5.0 | 0.00 | 0.01 | 0.00 | 28 | 1005.8 |
| 20260906000919 | 88 | 284 | 0.0 | 6.0 | 0.00 | 0.01 | 0.00 | 27 | 1005.8 |
| 20260905235918 | 89 | 322 | 2.0 | 7.0 | 0.00 | 0.01 | 0.00 | 26 | 1005.4 |
| 20260905235418 | 90 | 314 | 2.0 | 3.0 | 0.00 | 0.01 | 0.00 | 26 | 1005.1 |
| 20260905234918 | 90 | 289 | 1.0 | 3.0 | 0.00 | 0.01 | 0.00 | 25 | 1005.1 |
| 20260905234418 | 91 | 308 | 1.0 | 3.0 | 0.00 | 0.01 | 0.00 | 24 | 1004.8 |
| 20260905233918 | 91 | 299 | 1.0 | 3.0 | 0.00 | 0.01 | 0.00 | 24 | 1004.8 |
| 20260905232918 | 91 | 292 | 2.0 | 3.0 | 0.00 | 0.01 | 0.00 | 22 | 1004.5 |
| 20260905232419 | 91 | 299 | 1.0 | 3.0 | 0.00 | 0.01 | 0.00 | 23 | 1004.7 |
| 20260905231918 | 91 | 289 | 2.0 | 3.0 | 0.00 | 0.01 | 0.00 | 23 | 1004.4 |
| 20260905231418 | 91 | 247 | 1.0 | 2.0 | 0.00 | 0.01 | 0.00 | 23 | 1004.7 |
| 20260905230419 | 92 | 225 | 1.0 | 3.0 | 0.00 | 0.01 | 0.00 | 22 | 1004.4 |
| 20260905225918 | 92 | 293 | 1.0 | 3.0 | 0.00 | 0.01 | 0.00 | 22 | 1004.3 |
| 20260905225419 | 92 | 248 | 0.0 | 5.0 | 0.00 | 0.01 | 0.00 | 23 | 1004.4 |
| 20260905224919 | 92 | 263 | 0.0 | 5.0 | 0.00 | 0.01 | 0.00 | 22 | 1004.4 |
| 20260905224419 | 92 | 235 | 0.0 | 5.0 | 0.00 | 0.01 | 0.00 | 22 | 1004.4 |
| 20260905223919 | 93 | 289 | 1.0 | 5.0 | 0.00 | 0.01 | 0.00 | 20 | 1004.1 |
| 20260905223419 | 93 | 278 | 1.0 | 2.0 | 0.00 | 0.01 | 0.00 | 22 | 1004.1 |
| 20260905222918 | 94 | 235 | 1.0 | 5.0 | 0.00 | 0.01 | 0.00 | 21 | 1004.1 |
| 20260905222418 | 95 | 187 | 1.0 | 5.0 | 0.00 | 0.01 | 0.00 | 19 | 1003.7 |
| 20260905221919 | 94 | 242 | 2.0 | 5.0 | 0.00 | 0.01 | 0.00 | 20 | 1003.7 |
| 20260905221418 | 94 | 207 | 1.0 | 5.0 | 0.00 | 0.01 | 0.00 | 19 | 1004.1 |
| 20260905220918 | 94 | 229 | 1.0 | 5.0 | 0.00 | 0.01 | 0.00 | 21 | 1003.9 |
| 20260905220419 | 93 | 251 | 1.0 | 3.0 | 0.00 | 0.01 | 0.00 | 22 | 1004.1 |
| 20260905215918 | 92 | 242 | 0.0 | 3.0 | 0.00 | 0.01 | 0.00 | 21 | 1004.4 |
| 20260905215419 | 93 | 114 | 1.0 | 5.0 | 0.00 | 0.01 | 0.00 | 21 | 1004.1 |
| 20260905214918 | 93 | 282 | 1.0 | 5.0 | 0.00 | 0.01 | 0.00 | 21 | 1004.1 |
| 20260905214418 | 92 | 245 | 1.0 | 5.0 | 0.00 | 0.01 | 0.00 | 22 | 1004.4 |
| 20260905213918 | 93 | 196 | 2.0 | 5.0 | 0.00 | 0.01 | 0.00 | 22 | 1004.1 |